Theta_e
312 312 312 312 313 314 314 314 314 313 311 311 309 309 310 311 311 312 313 313 314 327 325 323 339 346 351 349 349 343 350 350 349 352 350 348 346 345 345 344 344 345 341 343 345
311 311 311 311 312 314 314 314 314 314 312 311 310 309 310 311 312 313 313 313 315 320 321 323 340 345 349 346 346 345 348 348 343 350 350 348 346 346 345 344 345 345 343 345 346
311 311 311 311 312 313 314 314 313 314 313 311 310 309 310 311 312 322 318 314 315 321 320 325 340 347 342 343 345 345 349 346 346 350 349 348 348 346 345 344 344 346 345 346 346
312 312 311 311 312 312 314 314 313 314 313 311 310 309 310 310 316 318 320 314 320 319 319 322 331 341 335 339 344 346 346 347 348 351 349 348 349 348 346 345 345 344 345 346 347
313 312 312 313 312 312 314 313 313 314 312 311 310 309 309 310 314 317 315 314 317 318 319 318 331 334 336 333 337 344 343 346 347 348 348 347 349 347 346 346 346 345 347 347 348
313 313 314 314 313 312 314 314 314 313 311 310 310 309 309 309 312 320 319 318 318 317 318 318 319 337 337 333 332 337 341 342 344 347 348 348 348 348 347 346 344 345 348 348 348
313 313 314 314 314 313 314 314 316 317 313 310 310 309 309 311 316 321 319 318 319 320 317 319 332 338 336 332 330 329 328 331 336 345 346 347 348 347 346 346 344 345 348 348 348
313 314 313 313 314 314 314 316 317 317 317 310 309 309 311 312 321 317 318 321 320 318 324 320 331 335 333 330 327 326 325 330 330 342 343 345 347 345 346 345 344 344 347 348 348
313 314 313 313 314 314 316 316 317 318 315 312 309 317 317 314 317 318 317 316 317 316 317 328 329 329 326 325 325 323 328 328 335 336 344 343 346 344 345 345 344 344 345 346 348
313 314 313 312 314 316 317 316 316 318 317 314 310 319 321 321 319 318 317 316 317 315 319 321 326 320 319 324 331 328 326 325 328 325 346 344 347 344 345 345 344 344 345 345 346
312 314 314 313 314 317 316 315 315 314 315 315 316 318 321 319 318 317 318 316 316 316 319 320 322 324 325 324 325 325 326 327 326 325 337 346 346 345 344 344 344 344 344 345 345
312 314 314 314 314 318 316 315 316 315 313 315 315 315 319 319 317 316 315 315 314 312 314 314 322 322 322 323 324 326 327 327 325 325 328 330 344 344 344 344 344 344 344 344 344
312 314 314 314 314 318 316 316 316 316 311 313 314 315 317 316 317 317 316 316 314 314 314 314 319 322 324 323 324 323 324 326 327 323 341 344 346 346 343 344 344 344 344 344 344
312 314 314 314 315 317 316 316 316 316 307 313 314 316 317 316 315 316 316 317 314 313 312 313 314 317 321 325 323 324 322 323 324 322 324 343 350 345 345 344 343 344 344 344 344
312 313 315 314 313 317 317 316 317 316 313 315 316 316 316 315 315 315 315 316 312 313 312 313 316 316 316 317 322 323 320 322 323 320 325 335 346 344 344 347 345 344 344 345 345
312 314 315 315 314 317 317 317 317 311 316 317 315 314 314 314 315 315 315 315 314 313 312 313 314 315 315 316 320 320 321 317 316 325 327 324 341 340 346 348 347 345 345 345 345
312 314 314 316 315 318 318 318 313 314 314 314 314 312 313 313 315 314 313 312 311 311 312 312 313 314 315 316 316 315 314 316 321 320 324 319 337 339 339 344 345 345 345 346 346
312 314 317 316 315 316 317 314 318 318 314 313 312 312 314 313 314 312 312 310 311 309 307 310 311 314 316 315 314 315 314 316 323 320 322 328 336 334 333 337 343 344 345 345 346
313 315 317 316 316 316 317 315 315 314 313 313 314 313 312 313 315 312 311 312 312 311 310 310 314 314 316 317 315 317 317 315 316 316 319 319 323 324 324 330 339 341 343 344 345
314 318 318 318 317 317 314 316 314 312 313 312 314 312 314 313 315 312 312 313 312 313 311 312 314 313 314 316 315 318 316 320 316 322 325 320 321 323 326 333 332 332 341 343 344
314 319 319 318 318 316 315 313 314 313 313 312 312 313 312 313 313 313 312 313 311 313 312 311 309 312 312 314 314 314 314 314 314 316 321 321 321 317 329 333 335 333 335 340 343
315 316 318 318 313 308 313 313 313 312 313 312 311 312 312 310 313 313 313 312 314 312 314 311 309 313 315 311 311 315 317 311 317 319 315 317 322 321 335 335 339 339 340 340 343
317 319 318 317 311 308 310 312 312 313 310 311 311 311 310 312 314 314 314 314 313 314 312 311 310 311 313 311 314 315 315 315 310 310 317 322 322 324 334 341 349 344 341 343 345
318 313 315 315 312 310 313 314 313 313 311 311 310 310 311 312 310 314 313 313 313 315 317 312 308 310 311 313 313 316 315 315 313 315 315 317 321 321 334 350 351 352 349 350 344
317 313 312 310 311 311 312 313 314 314 311 311 311 311 312 313 312 312 311 310 312 312 310 306 311 313 314 313 314 315 315 316 316 316 318 318 320 331 340 348 348 348 347 350 348
316 314 314 312 311 311 309 312 312 310 311 311 310 309 310 310 311 312 310 311 311 309 308 305 310 313 314 314 316 317 317 328 338 337 336 334 330 346 346 343 341 341 342 342 345
317 314 314 312 311 310 310 311 312 309 311 312 310 309 309 309 310 310 310 309 309 310 308 307 307 310 312 313 315 314 330 337 336 334 336 336 342 344 341 338 337 336 336 337 339
Wind_Speed
18 18 19 19 19 18 16 15 12 12 13 13 11 9 10 9 11 11 10 5 11 14 13 14 14 9 6 1 1 1 3 3 4 5 3 6 4 9 1 15 3 3 20 32 30
19 19 20 21 21 20 17 15 14 13 11 12 11 9 9 9 11 12 5 8 13 14 12 15 16 14 4 2 1 3 2 6 5 5 6 9 11 12 4 10 3 10 22 31 29
21 22 22 22 21 21 19 16 12 14 13 10 11 9 7 8 7 1 5 13 15 13 9 9 14 11 3 3 3 3 2 2 7 8 16 14 9 13 10 5 7 22 33 32 29
22 21 22 23 23 22 19 17 13 13 14 10 9 8 7 4 3 1 6 17 16 13 11 11 12 8 2 3 5 2 10 5 7 8 8 9 12 7 13 8 9 20 35 33 28
24 22 23 22 21 21 20 16 14 14 12 10 8 7 5 3 3 4 10 14 13 11 9 11 14 6 2 3 4 4 5 11 10 12 7 11 12 6 18 12 11 30 32 31 28
25 23 23 23 21 19 18 15 14 12 11 9 8 5 3 2 6 8 9 10 7 7 8 13 10 12 3 2 3 5 12 12 15 21 8 9 5 13 12 12 23 29 33 30 28
27 26 25 24 21 18 15 13 15 14 10 8 6 5 6 4 9 10 9 6 4 1 2 14 6 6 1 4 4 5 3 4 8 17 7 9 3 9 17 21 29 29 33 30 28
27 28 26 24 21 18 12 13 12 8 6 5 4 4 4 8 13 11 9 7 3 1 1 5 11 4 3 5 4 5 4 2 2 10 5 15 9 6 23 29 27 29 32 31 31
26 26 25 23 20 15 12 13 9 5 5 4 2 2 1 6 9 11 9 6 2 1 2 6 5 2 1 3 4 5 2 0 3 1 4 5 5 4 26 29 27 29 29 31 32
27 26 25 23 17 11 11 9 7 3 5 4 1 1 3 3 1 8 12 11 4 2 5 6 4 3 3 3 5 3 4 3 2 6 2 5 1 6 21 26 28 27 27 29 32
27 26 24 22 15 7 8 5 7 3 11 5 5 5 7 6 4 3 11 11 4 2 3 2 5 5 6 3 3 3 2 3 4 5 3 9 5 13 19 17 19 23 27 31 33
27 26 23 21 10 2 6 6 9 10 9 12 11 13 9 7 2 4 9 7 5 3 1 6 3 7 4 3 2 2 2 2 5 1 4 1 5 7 17 23 27 27 28 34 35
28 27 23 21 5 1 5 8 10 7 2 7 4 5 2 5 3 6 9 6 5 4 3 5 4 4 3 3 0 1 3 1 2 6 3 5 5 4 6 12 17 20 29 30 37
27 25 23 17 2 5 4 6 8 6 4 4 3 3 6 4 2 7 11 6 2 7 7 3 2 4 2 2 4 2 4 4 1 3 2 4 3 5 5 9 8 20 26 30 34
26 25 22 17 5 4 3 5 5 3 4 1 2 1 5 4 1 3 11 5 7 5 6 6 1 3 3 6 6 7 6 3 2 4 1 0 3 6 7 8 13 21 29 35 34
26 24 21 13 3 7 2 4 2 5 1 2 1 1 3 3 2 3 4 2 3 4 3 5 1 5 8 5 8 3 2 6 5 4 2 6 6 4 7 17 20 21 31 36 36
24 20 16 8 1 5 4 0 4 4 4 6 3 3 2 4 4 2 4 3 3 3 2 4 3 3 3 3 1 6 6 2 2 1 5 2 4 9 14 16 19 21 32 35 38
23 17 6 2 4 3 1 4 4 1 1 3 4 4 5 6 5 7 4 4 6 4 2 3 6 5 2 5 7 6 9 5 6 4 4 2 5 8 4 17 26 26 30 29 35
21 9 3 4 3 1 2 3 4 2 2 3 4 7 6 5 3 5 5 2 2 2 5 4 4 4 3 1 5 4 4 6 7 2 1 3 6 11 5 7 12 18 19 31 38
21 4 4 2 0 4 3 3 2 3 1 4 4 3 4 7 4 4 4 3 5 5 2 1 1 2 5 2 3 2 4 3 2 5 4 4 3 6 3 4 6 10 24 32 37
14 3 4 3 2 2 3 3 2 7 4 4 3 3 2 2 3 3 3 2 6 6 6 2 3 6 2 4 1 5 3 5 4 4 6 2 6 7 5 6 10 12 18 27 35
5 2 3 4 3 2 1 3 3 4 10 6 5 4 3 5 5 4 4 4 18 2 3 3 4 1 2 5 3 2 3 4 4 4 1 3 5 2 2 4 7 11 9 11 25
7 2 3 4 1 2 4 3 6 3 6 3 4 4 5 4 3 4 3 3 18 7 3 2 2 3 6 6 5 4 4 2 3 2 5 6 5 1 5 10 18 14 8 4 13
5 2 2 2 4 2 1 1 4 8 5 8 4 5 5 6 6 2 5 3 10 11 9 3 3 4 6 4 3 3 5 3 4 1 2 5 4 4 7 8 14 21 21 16 9
5 1 1 1 3 2 1 1 3 3 5 9 5 5 4 3 3 4 3 6 4 14 6 4 3 3 3 4 2 2 6 7 3 4 3 3 5 6 5 8 13 18 20 19 19
3 2 1 1 2 1 2 1 3 3 3 2 6 2 4 5 3 3 1 1 1 7 5 5 1 2 3 5 4 3 8 1 3 4 5 6 1 4 12 16 20 18 17 17 15
3 2 2 2 2 3 3 4 3 6 9 8 11 4 4 4 5 3 4 2 1 2 3 3 3 3 3 5 6 4 3 3 4 4 4 4 4 4 8 15 16 15 15 14 15
Wind_Direction
355 355 354 355 355 351 343 335 333 330 324 321 319 316 307 302 289 276 266 238 189 170 171 173 169 167 176 303 267 66 59 119 190 161 152 133 112 145 196 153 134 54 156 156 158
352 349 349 350 352 351 346 338 327 327 325 320 316 318 312 305 297 272 232 193 177 177 173 176 167 162 166 270 92 73 72 208 186 165 156 145 149 157 107 157 66 105 151 160 158
351 347 344 345 346 347 344 338 328 324 326 319 311 318 319 312 316 228 195 187 164 172 155 144 177 163 191 203 177 143 181 295 209 195 157 155 148 173 135 218 179 153 161 166 163
349 346 343 340 340 341 343 337 329 325 322 315 307 316 318 301 165 16 185 183 168 177 163 153 165 168 196 208 179 132 235 208 164 190 158 154 170 190 180 179 206 180 170 167 171
349 345 341 338 336 336 339 335 328 325 320 309 306 310 317 263 185 123 131 163 173 183 194 186 178 159 210 225 172 205 189 213 186 200 215 169 172 187 198 190 172 168 173 174 175
348 346 342 338 335 334 336 330 325 320 316 304 302 303 295 276 181 175 168 166 175 206 216 192 208 200 308 277 211 191 232 218 212 213 198 171 195 180 209 158 159 171 177 180 181
347 345 343 340 335 336 336 329 322 310 308 298 291 286 261 228 173 173 175 174 153 133 250 193 206 193 298 301 323 291 338 303 191 201 182 163 204 215 164 172 162 176 181 183 191
346 344 344 342 337 336 338 329 333 338 326 308 288 283 241 177 168 176 181 185 189 143 147 171 188 286 264 321 357 16 48 3 323 152 212 157 241 190 169 169 162 175 185 190 193
345 344 344 344 338 341 340 333 340 348 3 333 289 292 177 178 193 191 197 185 151 170 159 128 155 212 287 82 20 13 131 298 62 59 130 144 230 163 171 170 167 178 189 194 200
346 345 345 345 340 349 346 335 340 325 335 346 298 340 86 106 352 211 217 219 245 207 142 162 159 86 28 87 214 162 113 3 82 332 192 189 87 135 168 167 176 182 190 197 204
346 345 346 347 338 2 9 357 344 316 316 275 276 282 292 2 123 212 190 180 186 72 120 67 96 187 200 217 135 90 82 120 284 256 208 221 191 176 173 177 176 187 196 204 208
345 343 341 349 338 17 38 69 16 306 307 301 266 262 267 304 296 134 168 155 135 130 100 37 197 217 139 173 189 135 130 264 256 207 164 134 269 181 178 194 190 185 198 206 211
343 343 342 347 344 170 124 34 3 335 294 298 251 252 235 197 215 212 184 141 119 110 93 141 208 161 158 131 192 12 156 291 248 334 52 92 357 176 201 195 208 210 209 208 213
342 340 338 349 325 164 158 357 343 331 56 288 278 237 190 189 266 207 193 167 66 164 154 201 221 162 136 186 126 331 216 200 161 28 228 110 279 254 199 215 220 217 214 216 218
339 338 335 337 283 189 220 321 318 325 67 135 234 174 172 167 25 177 184 162 154 159 108 248 210 162 165 213 157 218 186 271 202 160 70 328 105 272 157 222 233 225 222 223 221
341 338 332 332 296 188 275 331 139 49 62 27 71 111 78 9 321 108 167 128 115 94 14 223 266 147 199 209 185 164 130 48 47 92 75 237 168 246 190 213 228 223 222 224 223
340 334 324 317 148 190 300 252 56 105 320 341 348 19 108 354 354 32 134 71 123 88 306 330 274 275 183 141 75 82 67 341 13 20 196 25 130 247 214 222 217 215 219 221 224
341 335 338 359 187 208 329 57 75 97 309 350 15 59 74 348 26 9 57 39 24 74 94 128 327 189 160 179 187 182 153 158 189 174 216 67 208 250 250 227 228 233 225 218 220
343 348 86 78 114 333 172 79 178 166 316 26 22 49 2 359 30 76 38 50 336 345 172 141 279 306 241 57 138 185 158 188 105 33 72 211 280 311 291 268 235 230 223 217 220
340 1 129 127 91 328 74 169 159 212 47 72 96 28 22 350 46 58 19 318 336 35 200 167 302 322 297 63 30 148 160 93 4 149 202 269 246 222 282 266 285 241 221 224 222
345 44 8 169 333 335 120 213 213 35 125 67 103 86 101 358 39 40 352 49 352 337 57 114 91 294 344 33 289 358 18 40 120 134 161 171 262 209 244 311 293 286 273 233 218
17 55 11 149 34 27 128 201 352 24 54 64 86 81 67 41 34 64 87 353 348 335 46 355 135 178 247 303 263 289 90 110 122 227 173 152 267 217 165 270 305 317 310 234 220
349 338 28 194 72 335 296 58 57 52 22 69 67 48 50 52 76 37 6 304 13 37 69 354 17 44 357 356 7 40 347 89 140 102 204 140 256 175 36 24 30 41 47 145 190
345 32 54 124 71 129 83 58 112 55 64 66 58 76 76 37 11 94 4 334 1 14 18 126 82 148 180 190 184 304 338 327 101 107 223 209 276 314 11 42 32 43 62 74 135
355 5 44 323 353 46 40 342 107 90 64 42 33 39 119 92 36 21 348 334 4 7 29 71 85 344 284 250 249 266 295 311 251 226 197 327 214 7 29 54 52 53 62 70 75
322 6 355 195 313 285 347 324 123 110 64 48 100 55 100 129 176 190 113 40 288 339 39 356 147 348 291 346 353 263 268 251 36 335 302 308 85 9 72 68 48 44 41 37 33
273 302 312 341 34 108 216 166 149 118 36 129 139 100 83 176 195 243 241 267 274 16 26 53 83 39 272 334 326 299 312 75 97 357 323 311 21 333 78 64 46 37 42 33 26